sat.trackr.live / text

‹ back to catalog

BEIDOU-3 M28 (C50)

NORAD 58654 · 2023-207A

PAYLOAD ACTIVE UNKNOWN

§ Identity

Operator
Country
PRC
Launch date
2023-12-26
Launch site
XICLF
Launch vehicle
Mass (kg)
RCS (m²)

Purposes: nav

External: N2YO · Heavens-Above · Gunter

§ Orbital elements

Epoch: 2026-05-24T16:09:13.192704Z

Period
773.24 min
Inclination
55.7330°
Eccentricity
0.0003901
Mean motion
1.86229732 rev/d
Perigee alt
21,517.3 km
Apogee alt
21,539.1 km
Semi-major
27,906.3 km
B*
0.0000e+0
RAAN
63.0961°
Arg perigee
336.6744°
Mean anomaly
23.3018°
Rev number
1,640

§ Raw data

BEIDOU-3 M28 (C50)1 58654U 23207A   26144.67306936 -.00000074  00000+0  00000+0 0  99992 58654  55.7330  63.0961 0003901 336.6744  23.3018  1.86229732 16402

JSON: /api/v1/satellites/58654 · /tle

For live sub-satellite position, see the globe view (requires WebGL).

§ Visibility from observer

Set your observer location to see the next 7 days of passes ≥ 10°. The values pass through the URL so the page stays shareable.

No JS? Fill the form by hand. The geolocation button needs JavaScript.